Theta_e
306 307 308 315 316 318 320 323 325 327 327 327 326 332 342 343 345 348 348 346 346 344 341 340 340 339 337 337 336 333 330 329 327 326 325 327 331 333 337 340 338 341 343
304 306 308 314 316 316 317 321 323 322 324 324 327 328 328 331 336 343 349 350 346 346 343 340 339 338 338 337 335 333 333 333 331 327 322 320 323 330 336 338 339 338 338
304 305 313 313 316 318 318 316 319 319 321 323 321 320 321 322 324 326 331 339 341 345 347 344 341 339 339 339 337 333 333 332 331 331 326 318 318 322 330 335 335 336 335
304 309 312 311 311 314 319 321 319 322 320 319 318 318 318 316 318 322 327 327 331 336 341 342 345 342 341 340 339 339 335 334 330 331 335 328 324 321 319 330 333 334 335
307 310 311 309 310 312 318 316 317 316 315 323 321 320 319 319 320 321 321 322 325 330 333 335 338 340 338 332 333 336 331 333 334 332 330 330 330 327 321 321 327 328 333
308 309 308 307 307 312 312 311 312 314 314 314 316 315 314 314 318 320 320 323 322 323 326 331 328 331 326 328 330 330 328 331 332 328 324 328 328 327 325 319 320 325 328
305 305 304 304 306 307 308 311 309 310 312 313 313 314 313 314 317 319 320 320 322 323 324 326 329 327 328 327 324 324 325 330 334 331 330 330 326 327 329 324 320 320 323
302 303 304 304 304 307 307 309 308 309 310 311 312 315 315 317 318 315 316 320 321 323 323 325 325 328 334 333 328 327 328 328 326 328 325 327 323 328 330 328 323 317 318
303 304 305 304 305 306 307 308 308 308 312 313 313 312 314 316 314 316 318 320 321 322 319 318 317 321 326 329 329 329 329 327 325 325 325 324 324 328 333 328 324 324 317
302 301 302 303 303 304 307 308 308 310 310 311 310 311 314 315 314 313 318 317 317 317 317 316 315 314 319 323 324 323 324 323 322 322 324 323 322 328 332 330 328 325 321
303 302 302 302 303 303 304 306 308 309 308 309 309 309 311 311 311 314 317 316 316 316 316 315 314 314 313 315 317 317 318 318 320 322 325 327 325 324 323 325 324 325 324
305 305 304 302 301 302 304 304 308 307 309 310 309 309 310 310 310 313 313 314 315 315 315 315 314 314 314 313 312 314 318 318 317 319 322 325 324 319 318 320 321 320 322
306 305 305 305 304 302 303 304 303 305 307 308 308 308 308 307 309 309 310 311 312 311 313 315 314 313 313 314 313 314 314 314 316 323 324 323 323 320 320 318 319 320 321
302 303 301 300 302 304 304 305 304 305 305 306 305 304 304 305 307 306 307 308 309 309 311 313 314 314 314 315 316 316 313 313 313 315 319 321 322 322 321 320 319 319 320
301 301 300 300 301 302 303 305 305 305 306 305 304 304 304 304 304 305 305 306 306 307 310 312 312 312 312 314 313 312 311 310 311 313 314 314 322 321 320 321 321 322 323
300 301 301 302 302 302 303 304 304 304 305 304 304 305 305 306 305 305 305 304 304 304 306 308 310 310 313 309 307 310 312 313 313 314 314 317 320 319 316 318 318 325 322
299 299 300 300 300 300 302 301 302 303 303 303 305 306 305 306 305 306 305 303 303 302 303 305 307 308 309 306 304 307 311 313 314 314 312 315 321 318 321 313 313 313 311
299 298 298 298 299 299 299 300 301 301 301 301 302 303 304 304 304 303 302 301 300 300 300 301 304 306 308 305 303 304 310 312 313 314 314 318 320 321 321 316 312 310 310
298 298 298 298 297 297 297 296 296 296 297 298 298 300 301 301 301 302 303 303 301 300 299 302 302 304 306 303 302 303 310 313 313 316 318 316 315 303 303 310 308 307 307
297 297 296 297 296 295 295 295 295 295 295 296 297 298 297 297 297 298 299 301 302 302 304 303 304 304 303 302 301 303 311 312 312 314 316 308 310 300 301 309 308 307 308
297 295 295 294 294 294 294 293 293 293 295 296 295 295 295 295 296 296 297 298 299 301 302 302 301 302 303 305 301 299 308 312 311 311 314 311 300 298 299 303 310 308 308
295 295 292 292 294 294 293 292 291 293 294 293 294 293 293 294 295 294 296 297 298 299 301 299 297 300 302 302 302 299 298 306 310 310 316 312 298 298 299 305 301 299 306
293 293 292 291 292 292 291 290 292 292 292 291 291 292 293 293 293 294 294 295 299 300 300 299 298 296 299 302 303 302 299 297 306 312 311 303 298 297 298 301 299 300 308
291 291 290 289 289 290 291 290 291 291 291 290 290 290 291 292 292 293 294 295 296 298 299 297 295 295 297 301 305 308 308 300 303 303 305 305 303 301 302 302 302 309 308
290 290 288 288 288 289 289 290 290 290 289 289 290 290 291 291 291 292 294 295 299 300 300 299 298 294 295 297 297 300 307 308 305 304 306 306 306 304 305 305 304 305 306
288 287 287 287 287 288 288 288 289 289 288 288 289 290 290 291 291 292 293 295 294 296 294 294 298 299 296 293 293 293 294 295 297 307 305 305 306 306 305 305 304 304 305
Wind_Speed
10 8 10 7 6 6 9 9 10 7 5 3 3 0 2 3 4 4 7 6 8 10 10 8 6 5 9 12 12 7 8 8 4 2 4 4 5 6 5 7 4 5 7
8 9 6 9 6 9 7 8 9 8 4 4 3 2 0 2 3 4 7 6 5 6 8 9 7 7 7 10 9 9 8 7 7 7 3 4 5 3 8 5 6 8 4
12 6 9 9 9 10 10 9 10 9 7 7 4 2 2 3 4 4 4 4 5 6 8 9 6 8 8 12 9 5 10 11 5 9 6 3 8 1 3 7 5 7 5
7 8 14 10 10 9 8 9 8 8 5 6 5 4 3 1 3 2 2 5 4 4 6 7 9 10 6 8 6 1 6 6 8 2 9 7 4 4 2 3 5 7 7
13 18 16 11 9 8 9 8 8 6 4 5 4 2 0 2 3 4 5 4 3 2 6 6 7 6 7 7 9 10 12 15 6 5 4 10 6 2 2 4 4 2 5
14 14 11 10 8 8 8 8 9 6 6 6 5 4 3 4 3 5 4 4 3 3 4 6 6 6 5 8 10 14 16 13 11 7 8 15 8 12 4 3 5 5 5
9 10 9 8 9 9 8 8 8 7 7 7 5 3 3 4 5 4 3 5 4 4 6 6 6 5 8 8 9 9 9 9 7 10 9 7 8 9 11 5 5 4 5
7 7 7 7 7 8 8 8 8 7 6 5 4 3 2 2 2 2 2 1 1 2 5 5 7 9 8 9 8 8 9 9 8 11 9 11 9 6 10 12 6 5 4
6 7 7 7 8 8 9 9 8 7 8 8 6 5 4 5 5 4 3 3 3 1 1 1 3 6 8 8 9 7 10 9 9 11 14 12 9 10 9 6 3 7 9
3 4 3 6 6 7 8 8 9 10 9 8 7 6 7 6 5 4 4 3 4 4 4 3 2 3 5 6 5 5 5 6 8 7 6 8 7 9 10 3 2 3 3
1 3 2 4 6 5 7 8 8 8 8 8 8 8 7 7 7 7 7 6 4 5 4 5 5 5 5 5 5 6 8 10 8 7 8 12 7 6 4 1 1 3 4
6 5 5 4 6 8 7 8 8 8 9 10 7 8 8 8 8 7 8 7 7 5 6 6 5 5 6 6 7 7 5 8 9 12 13 12 6 4 4 5 10 4 9
8 8 7 7 6 6 5 6 6 7 7 5 7 8 9 8 9 9 8 7 7 7 5 6 6 5 6 6 7 9 10 6 5 7 7 7 9 8 5 5 6 12 10
8 6 9 7 6 6 6 6 6 6 6 5 6 7 8 9 10 8 8 7 8 7 6 7 6 6 6 6 7 7 7 9 9 7 9 15 17 16 14 18 17 14 11
11 7 6 5 5 5 5 4 5 6 4 5 4 7 8 7 7 7 8 8 8 8 7 6 6 7 6 6 8 6 8 10 11 11 13 18 23 28 24 15 19 14 12
5 5 4 5 5 5 6 5 6 7 6 7 8 8 7 7 8 9 10 9 9 7 6 6 6 6 5 10 12 10 8 11 12 12 15 15 30 31 28 24 11 11 11
5 6 6 6 6 6 6 6 6 6 6 6 7 7 7 9 9 9 8 8 8 7 7 7 6 7 7 12 15 16 8 11 11 15 20 20 22 24 16 7 13 13 13
6 6 4 6 7 5 5 4 5 5 6 7 9 9 10 10 8 7 8 8 6 7 7 7 7 7 8 14 17 17 10 9 10 14 24 12 17 16 13 10 10 8 7
7 4 6 7 4 4 4 5 7 8 10 12 13 14 14 15 15 15 14 10 8 6 6 8 7 7 7 12 16 14 9 7 9 13 15 7 8 15 17 12 12 8 5
5 7 6 2 5 5 6 9 13 13 15 16 14 12 13 15 16 17 16 15 15 17 14 15 12 10 7 9 14 13 6 8 6 7 7 7 10 16 17 14 12 10 6
8 4 5 5 7 7 7 14 16 15 13 13 14 14 13 15 14 14 13 14 14 12 11 10 8 8 7 8 12 11 7 8 5 6 6 8 15 17 12 13 10 9 8
4 5 6 8 10 12 11 15 14 13 13 14 14 14 14 12 12 15 13 12 13 14 11 10 6 5 6 9 11 11 9 9 7 7 4 4 16 15 14 12 12 14 9
6 6 10 15 14 12 10 14 15 14 15 15 15 14 13 13 13 14 12 12 11 10 9 7 6 4 4 5 11 6 5 10 8 9 8 9 14 14 10 12 13 11 5
10 11 13 15 15 11 13 14 15 14 15 15 15 13 13 12 12 10 10 9 8 8 6 6 5 5 4 3 3 3 4 10 10 5 5 7 9 7 8 7 5 4 6
11 12 14 14 16 15 15 14 14 14 15 15 14 13 11 11 10 10 9 10 9 7 8 5 4 4 3 2 0 1 5 2 5 5 3 4 4 5 4 4 6 4 4
14 13 14 15 16 16 15 15 14 13 14 14 11 10 9 9 8 8 8 13 15 10 8 6 5 0 8 11 6 6 7 2 11 4 3 3 5 6 5 4 4 4 7
Wind_Direction
229 214 161 157 120 104 129 141 135 154 142 133 140 61 246 242 243 246 247 225 215 220 224 222 224 202 223 223 216 206 197 217 181 116 283 282 266 256 240 237 242 239 217
236 236 140 151 156 143 142 132 132 133 115 109 125 135 325 297 273 275 297 284 247 242 239 221 228 225 235 235 225 217 234 231 178 202 130 266 299 268 233 226 225 230 234
222 202 138 145 147 143 144 142 145 146 145 137 115 66 10 351 351 340 333 346 344 288 263 259 218 223 226 244 242 231 232 236 213 208 193 157 231 324 223 223 216 227 223
206 138 144 156 157 155 149 140 130 128 127 102 99 132 154 234 236 256 264 306 318 317 327 291 252 223 221 238 263 6 285 271 254 250 245 244 129 198 291 266 224 220 222
163 155 157 154 145 139 140 133 118 100 94 117 122 106 276 241 291 295 299 306 305 302 299 291 294 262 192 191 214 215 229 256 229 240 331 297 252 229 175 230 258 291 232
152 142 141 138 130 131 133 135 132 136 143 146 151 163 222 273 300 296 311 323 335 339 316 300 278 285 223 221 237 238 223 231 231 205 203 253 242 247 209 207 260 231 239
118 129 131 127 133 140 145 142 144 153 162 152 158 186 251 275 265 279 298 327 340 351 337 339 317 278 264 244 252 264 256 255 229 220 220 225 283 301 280 238 233 239 243
103 121 136 137 143 149 157 154 163 162 170 166 171 163 186 203 243 269 293 334 40 19 39 4 358 338 300 265 250 244 244 224 210 206 203 227 237 204 245 260 219 272 259
147 155 163 153 156 166 179 177 175 184 186 175 174 194 212 194 210 232 195 156 159 194 35 79 323 336 329 305 269 260 262 257 251 245 241 240 225 209 227 214 195 228 254
225 198 171 171 186 183 189 193 193 191 194 192 188 202 207 211 219 238 238 219 191 171 170 194 219 275 304 310 308 291 276 267 256 249 246 227 231 243 241 195 187 165 147
36 284 303 273 245 228 205 211 212 202 205 201 203 203 210 222 220 218 220 228 203 207 200 197 213 247 255 277 271 255 258 266 263 259 244 239 177 173 127 161 137 54 231
254 251 250 250 254 259 237 218 215 209 214 208 198 206 215 214 222 225 226 221 223 211 202 215 215 242 255 249 248 262 259 238 248 255 245 220 183 178 181 187 200 227 203
209 231 239 233 257 260 254 281 279 247 247 224 212 219 217 213 220 224 226 227 230 232 205 219 224 230 239 237 233 242 258 239 238 262 248 247 213 195 195 240 205 210 218
254 302 14 24 34 36 40 12 353 358 333 312 291 273 247 228 226 226 228 232 233 233 226 222 232 241 268 255 249 241 241 234 242 235 248 239 225 229 212 221 221 193 216
61 46 29 17 14 10 10 9 352 336 325 322 299 269 272 272 274 269 249 241 237 237 229 221 219 218 225 238 244 225 235 240 236 230 250 252 233 213 218 206 222 185 193
38 12 359 348 339 327 319 312 305 297 299 291 279 274 263 249 240 241 240 240 249 254 248 238 234 247 246 250 250 228 242 245 254 270 270 263 223 208 205 214 179 180 173
345 328 321 320 321 311 299 303 317 321 323 312 303 293 280 273 260 255 251 244 238 232 230 232 225 236 241 257 265 249 246 261 273 285 277 270 207 202 190 150 166 182 172
320 313 315 302 291 318 19 342 334 323 311 299 293 291 290 289 290 275 254 245 236 237 244 242 228 231 246 249 257 257 249 264 281 286 305 192 186 172 152 139 155 147 166
290 282 281 290 360 8 344 329 307 290 291 291 289 287 284 280 275 270 265 254 248 244 231 250 249 239 247 248 257 258 252 263 291 300 292 92 134 107 126 146 149 156 161
298 292 352 24 344 310 300 305 302 299 295 295 298 307 304 297 291 287 286 280 274 275 263 265 249 223 238 248 266 254 242 253 280 290 245 200 147 153 162 161 146 143 173
305 34 345 311 286 291 290 296 295 294 298 296 294 289 287 285 285 286 280 272 269 275 264 241 230 222 233 246 257 240 244 253 257 288 185 188 157 161 146 132 146 158 143
357 330 311 300 299 300 299 293 294 296 297 292 290 290 289 289 288 281 277 280 276 263 261 241 228 226 238 240 253 227 232 232 259 262 268 157 152 159 148 145 161 144 139
313 305 306 304 303 304 292 293 297 302 299 296 291 290 288 285 282 278 276 272 260 270 237 228 216 227 241 245 250 193 321 266 237 245 224 184 170 162 154 161 148 145 127
310 309 305 300 300 303 305 297 299 301 295 291 289 287 283 280 281 271 269 271 265 256 237 207 201 228 240 229 234 211 143 217 213 226 172 187 154 118 119 90 140 182 156
307 307 303 301 305 310 302 300 303 297 293 288 284 280 274 269 272 269 267 263 260 251 227 197 198 219 199 209 264 323 95 229 205 149 130 124 129 127 141 150 164 182 171
311 309 307 307 306 304 305 303 298 295 291 289 288 280 276 270 261 273 274 257 245 219 251 197 184 230 140 169 169 112 56 26 170 163 155 145 156 146 159 165 162 177 201